{"data":{"norad_id":48051,"epoch":"2026-09-19T10:01:17.517504Z","epoch_age_seconds":111838,"freshness":"FRESH","line1":"1 48051U 21025K   26262.41756386  .00000259  00000+0  67367-3 0  9993","line2":"2 48051  87.8921 301.4667 0001651  91.2558 268.8760 13.13469824265961","mean_motion":13.13469824,"eccentricity":0.0001651,"inclination_deg":87.8921,"raan_deg":301.4667,"arg_perigee_deg":91.2558,"mean_anomaly_deg":268.876,"bstar":0.00067367,"rev_number":26596,"period_min":109.63327620384,"perigee_km":1208.5133149356,"apogee_km":1211.0188405319,"semimajor_km":7587.9030777338,"source":"CELESTRAK","updated_at":"2026-09-20T09:00:44.585585Z"}}